{"data":{"norad_id":58550,"epoch":"2026-09-20T07:26:55.451328Z","epoch_age_seconds":166166,"freshness":"FRESH","line1":"1 58550U 23192V   26263.31036402  .00000072  00000+0  13270-4 0  9993","line2":"2 58550  53.1592 236.5574 0001501  85.2636 274.8538 15.34392123155819","mean_motion":15.34392123,"eccentricity":0.0001501,"inclination_deg":53.1592,"raan_deg":236.5574,"arg_perigee_deg":85.2636,"mean_anomaly_deg":274.8538,"bstar":1.327e-5,"rev_number":15581,"period_min":93.848239860913,"perigee_km":461.69983877704,"apogee_km":463.75346604549,"semimajor_km":6840.8636524113,"source":"CELESTRAK","updated_at":"2026-09-21T09:00:33.916100Z"}}